User: anonymous
Location: Unspecified
(0.0000°N, 0.0000°E)
Time: 17:33:28
(UTC+02:00)
Language:

Cosmos 1758 - Orbit

View from above orbital plane
View from above orbital plane
View from above satellite
View from above satellite

Ground track
Ground track

The orbit data is extracted from the following two-line orbital elements,

1 16791U 86046A   14211.76769632  .00000936  00000-0  70646-4 0   911
2 16791 082.4737 335.6991 0018924 068.0503 292.2730 15.01146422527565
Epoch (UTC): 30 July 2014 18:25:28
Eccentricity: 0.0018924
inclination: 82.4737°
perigee height: 550 km
apogee height: 576 km
right ascension of ascending node: 335.6991°
argument of perigee: 68.0503°
revolutions per day: 15.01146422
mean anomaly at epoch: 292.2730°
orbit number at epoch: 52756

The dashed part of the orbit path shows where the satellite is in the earth's shadow,  

DLR